Regional Weather Roundup
Issued by NWS Pendleton, OR

Home | Current Version | Previous Version | Text Only | Print | Product List | Glossary On
Versions: 1 2 3 4 5 6 7 8 9 10 11 12 13 14 15 16 17 18 19 20 21 22 23 24 25 26 27 28 29 30 31 32 33 34 35 36 37 38 39 40 41 42 43 44 45 46 47 48 49 50
000
ASUS46 KPDT 221125
RWRPDT
PENDLETON REGIONAL WEATHER ROUNDUP
NATIONAL WEATHER SERVICE PENDLETON OREGON
400 AM PDT TUE AUG 22 2017

NOTE: FAIR INDICATES FEW OR NO CLOUDS BELOW 12,000 FEET WITH NO
SIGNIFICANT WEATHER AND/OR OBSTRUCTIONS TO VISIBILITY.

# INDICATES UNOFFICIAL STATION AND DATA

WAZ520-221210-
EAST SLOPES OF WASHINGTON CASCADES

CITY            SKY/WX      TMP DP  RH  WIND    PRES   REMARKS
#BULLFROG       N/A         47  43  86  CALM    N/A
#CLE ELUM HS    N/A         51  42  71  CALM    30.00S
#CLE ELUM LAKE  N/A         62  41  46  CALM    30.12S
#ELK HTS DOT    N/A         56  55  96  CALM    N/A
#GLENWOOD       N/A         44  42  93  CALM    30.00R
#NELSON 3SW     N/A         56  42  59  CALM    30.16S
#NILE           N/A         52  43  71  CALM    29.31S
#TEANAWAY 4NE   N/A         50  42  74  CALM    N/A
#TROUT LAKE 1NE N/A         49  44  83  CALM    29.98S
#TROUT LAKE 1E  N/A         46  41  83  CALM    30.08S
$$

WAZ521-221210-
SIMCOE HIGHLANDS

CITY            SKY/WX      TMP DP  RH  WIND    PRES   REMARKS
#BICKLETON HS   N/A         67  50  54  W7      29.97S
#SATUS PASS DOT N/A         60  36  41  S1      N/A
#CENTERVILLE 1SWN/A         49  34  56  CALM    29.93R
#GOLDENDALE 1NE N/A         55  27  34  N3      N/A
#GOLDENDALE 4W  N/A         52  14  22  CALM    30.06S
#GOODNOE HILLS  N/A         68  40  36  NW5     N/A
#LYLE 6NE       N/A         65  43  45  CALM    29.95S
#PITT 4SE       N/A         65  41  41  N1      29.96S
$$

WAZ026-221210-
KITTITAS VALLEY

CITY            SKY/WX      TMP DP  RH  WIND    PRES   REMARKS
ELLENSBURG AP   CLEAR       54  43  66  CALM    30.04S
#ELLENSBURG CWU N/A         55  46  72  CALM    29.93R
#ELLENSBURG 3NE N/A         52  44  74  CALM    28.12R
#ELLENSBURG 1E  N/A         51  45  80  CALM    30.01S
#KITTITAS 3S    N/A         45  43  93  CALM    29.97R
#MANASTASH RDG  N/A         63  63  100 NW3     N/A
#ROCKY CYN DOT  N/A         57  44  62  W5      N/A
#RYEGRASS DOT   N/A         62  39  43  S6      N/A
$$

WAZ027-221210-
YAKIMA VALLEY

CITY            SKY/WX      TMP DP  RH  WIND    PRES   REMARKS
SUNNYSIDE AP    N/A         51  49  93  CALM    29.99S
YAKIMA AIRPORT  CLEAR       55  48  77  W8      30.01S
YAKIMA-VAGABOND CLEAR       57  39  51  CALM    30.01S
#DONALD 2NE     N/A         68  13  12  CALM    28.84S
#GRANDVIEW      N/A         56  50  80  CALM    29.97S
#MABTON         N/A         55  48  77  CALM    29.98S
#MOXEE 2E       N/A         55  N/A N/A CALM    29.95R
#NACHES 2SW     N/A         64  47  54  W6      30.04S
#OUTLOOK DOT    N/A         56  52  86  CALM    29.95S
#PARKER DOT     N/A         71  43  36  SE10    29.98S
#TERRACE HTS    N/A         57  48  72  CALM    29.92S
#TOPPENISH      N/A         61  51  70  CALM    29.88S
#I82 S UMTANUM RN/A         64  41  43  CALM    N/A
#UNION GAP DOT  N/A         54  49  83  NE2     30.03S
#W YAKIMA       N/A         62  47  58  CALM    29.96R
#WHITE SWAN 5E  N/A         54  47  77  CALM    29.96S
#WILEY CITY 3W  N/A         56  39  53  CALM    29.99S
#ZILLAH DOT     N/A         56  50  80  CALM    N/A
$$

WAZ028-221210-
LOWER COLUMBIA BASIN...WASHINGTON

CITY            SKY/WX      TMP DP  RH  WIND    PRES   REMARKS
PASCO           CLEAR       57  52  83  CALM    29.97S
PROSSER AWOS    N/A         54  50  86  CALM    30.01F
RICHLAND AWOS   CLEAR       59  51  75  CALM    29.97S
#BENTON CITY    N/A         61  49  65  CALM    29.85S
#CONNELL 5N     N/A         62  42  48  NW2     29.94S
#CONNELL 5NW    N/A         54  46  74  CALM    29.89S
#ELTOPIA 6NW    N/A         63  49  60  CALM    28.95S
#KAHLOTUS       N/A         60  40  47  CALM    29.93S
#KENNEWICK 3S   N/A         65  54  68  CALM    29.94S
#PATERSON       N/A         60  52  75  E1      29.93R
#PROSSER DOT    N/A         57  52  83  CALM    29.98S
#SAGEMOOR 2W    N/A         62  50  65  CALM    29.80R
#TOUCHET 2S     N/A         50  45  83  CALM    29.93S
#WEST PASCO     N/A         58  52  80  CALM    29.95S
$$

WAZ029-221210-
FOOTHILLS OF THE BLUES...WASHINGTON

CITY            SKY/WX      TMP DP  RH  WIND    PRES   REMARKS
WALLA WALLA AP  CLEAR       63  45  52  E6      29.98S
#CLYDE 6NW      N/A         56  40  55  CALM    29.92S
#DAYTON SCHOOL  N/A         58  37  45  CALM    30.01S
#DELANEY DOT    N/A         51  42  71  CALM    29.99S
#LOWDEN 2SE     N/A         53  48  83  CALM    29.93S
#PLEASANT VIEW 1N/A         65  40  40  CALM    29.95S
#PRESCOTT       N/A         54  45  71  CALM    29.93S
#WHITMAN COLLEGEN/A         69  48  47  CALM    29.97S
#WAITSBURG 5S   N/A         66  43  43  CALM    30.01S
#WAITSBURG 6SSE N/A         58  41  53  E3      29.96S
#WAITSBURG 8N   N/A         84  N/A N/A CALM    29.92S
#WALLA WALLA 5E N/A         60  43  53  NE5     N/A
#WHITMAN MISSIONN/A         57  49  75  CALM    29.95S
$$

WAZ030-221210-
BLUE MOUNTAINS...WASHINGTON

CITY            SKY/WX      TMP DP  RH  WIND    PRES   REMARKS
#DIXIE 5SE      N/A         72  39  30  SE2     29.99S
$$

ORZ009-041-WAZ024-221210-
COLUMBIA RIVER GORGE

CITY            SKY/WX      TMP DP  RH  WIND    PRES   REMARKS
HOOD RIVER AP   CLEAR       57  46  67  S3      30.00R
THE DALLES AP   CLEAR       61  47  60  CALM    29.97S
#CELILO DOT     N/A         66  45  47  S1      N/A
#LYLE           N/A         64  45  50  N7      29.97S
#MARYHILL       N/A         64  42  45  N1      29.85
#MURDOCK        N/A         64  48  56  N1      29.92S
#RUFUS DOT      N/A         66  N/A N/A S6      N/A
#SMITHVILLE     N/A         55  46  72  CALM    29.98S

$$

ORZ510-221210-
NORTH CENTRAL OREGON

CITY            SKY/WX      TMP DP  RH  WIND    PRES   REMARKS
#ANTELOPE       N/A         52  39  61  NE1     29.80S
#CHENOWITH 1W   N/A         65  41  41  NW7     N/A
#COW CYN RST AREN/A         66  39  37  N3      N/A
#DUFUR          N/A         54  40  59  CALM    29.93S
#DUFUR 9E       N/A         72  41  33  CALM    29.97F
#GRASS VALLEY 1SN/A         62  42  48  CALM    30.06S
#KENT DOT       N/A         60  36  41  SW2     N/A
#MAUPIN SCHOOL  N/A         62  43  50  CALM    30.05S
#SHANIKO 5WSW   N/A         67  38  34  N10     N/A
#SHANIKO 4NW    N/A         65  40  40  E8      30.10F
#TYGH VALLEY 2NEN/A         59  40  49  CALM    29.95S
#WAPANITIA AIRPON/A         59  40  49  CALM    29.96S
#WASCO 5NE      N/A         62  42  48  CALM    29.93F
$$

ORZ511-221210-
CENTRAL OREGON

CITY            SKY/WX      TMP DP  RH  WIND    PRES   REMARKS
BEND AIRPORT    CLEAR       57  39  51  SW3     30.11S
MADRAS AIRPORT  CLEAR       52  41  66  SE7     30.08S
PRINEVILLE AP   CLEAR       50  36  58  CALM    30.11R
REDMOND AIRPORT CLEAR       52  35  52  CALM    30.09R
#ASHWOOD SCHOOL N/A         56  39  53  CALM    30.03S
#BEND 1SW       N/A         51  40  66  CALM    N/A
#BEND-AWBREY    N/A         60  43  53  CALM    29.94S
#BEND-KIM LN    N/A         52  39  61  SW2     29.91R
#CULVER         N/A         55  42  61  CALM    29.88R
#CULVER 8W      N/A         56  36  47  CALM    30.06S
#LAKE BILLY CHINN/A         59  N/A N/A CALM    30.03R
#MADRAS 4S      N/A         58  16  19  S5      N/A
#POWELL BUTTE   N/A         62  41  46  CALM    30.05R
#PRINEVILLE     N/A         59  41  51  E8      30.04R
#PRINEVILLE 3N  N/A         50  43  77  CALM    29.96S
#WARM SPRINGS   N/A         58  43  57  CALM    29.84R

$$


ORZ509-221210-
EAST SLOPES OF OREGON CASCADES

CITY            SKY/WX      TMP DP  RH  WIND    PRES   REMARKS
SISTERS AWOS    N/A         46  37  71  CALM    30.07R
#BLUE BOX PASS  N/A         65  N/A N/A N3      N/A
#CAMP SHERMAN   N/A         44  37  76  CALM    30.04S
#LA PINE 4NW    N/A         45  34  65  CALM    30.02R
#LAVA BUTTE DOT N/A         51  37  59  NE5     N/A
#SISTERS ODOT   N/A         47  38  71  CALM    N/A
#SISTERS 3N     N/A         45  31  58  CALM    30.09S
#SUNRIVER       N/A         49  41  74  CALM    30.15S
#TUMALO 3W      N/A         66  40  38  W2      29.81S
#WANOGA BUTTE D N/A         65  34  31  CALM    N/A

$$

ORZ044-221210-
LOWER COLUMBIA BASIN...OREGON

CITY            SKY/WX      TMP DP  RH  WIND    PRES   REMARKS
HERMISTON       CLEAR       57  47  69  CALM    29.96S
#BOARDMAN SCHOOLN/A         56  46  69  SE1     29.96R
#BOARDMAN 8SW   N/A         61  46  58  SW2     29.95S
#ECHO 8SW       N/A         58  46  64  SW2     29.98R
#I-84 EX 198 DOTN/A         65  45  48  NE5     N/A
#IONE SCHOOL    N/A         59  41  51  CALM    29.96S
#UMATILLA       N/A         59  46  62  CALM    29.88R
$$

ORZ507-221210-
NORTHERN FOOTHILLS OF THE BLUES

CITY            SKY/WX      TMP DP  RH  WIND    PRES   REMARKS
PENDLETON AIRPT CLEAR       62  43  50  SE9     29.99S
#ADAMS 3WNW     N/A         50  40  68  CALM    29.95R
#ATHENA         N/A         53  43  69  CALM    29.98R
#CAYUSE         N/A         64  44  48  E3      29.93R
#HELIX SCHOOL   N/A         53  41  64  CALM    29.95S
#HELIX 3N       N/A         62  44  52  S1      29.98S
#HOLDMAN 5SE    N/A         58  43  57  CALM    29.99R
#HOLDMAN 6E     N/A         62  45  54  CALM    29.74S
#M-F GROVE ELEM N/A         60  41  49  CALM    29.96S
#M-FREEWATER 5SEN/A         60  43  53  CALM    29.98S
#PENDLETON DNTN N/A         57  39  51  CALM    29.98S
#PDT AQUATIC CTRN/A         56  40  55  CALM    29.99S
#PDT SUNRIDGE   N/A         55  43  64  CALM    30.01R
#PENDLETON 7NW  N/A         57  44  62  E1      29.11R
#PILOT ROCK 1S  N/A         64  40  41  CALM    30.02S
#PILOT ROCK     N/A         59  41  51  CALM    29.92S
#TUTUILLA       N/A         52  44  74  CALM    30.05S
#UMAPINE 2E     N/A         57  49  75  CALM    29.94S
#WESTON SCHOOL  N/A         63  38  39  W2      29.92S

$$

ORZ508-221210-
SOUTHERN FOOTHILLS OF THE BLUES

CITY            SKY/WX      TMP DP  RH  WIND    PRES   REMARKS
LEXINGTON       CLEAR       61  41  48  SE9     30.04S
#AJAX           N/A         68  37  32  CALM    30.17S
#HEPPNER EOC    N/A         62  42  48  E7      29.88S
#HEPPNER 4NE    N/A         63  43  48  E3      29.93S
#MIKKALO        N/A         62  38  41  SE1     30.12S
#OLEX 4N        N/A         62  43  50  S3      29.97S
#RUGGS 5NE      N/A         59  38  45  CALM    30.23S
#RUGGS 2SW      N/A         64  41  43  S7      29.94F

$$

ORZ502-503-221210-
BLUE MOUNTAINS

CITY            SKY/WX      TMP DP  RH  WIND    PRES   REMARKS
MEACHAM         CLEAR       42  35  76  CALM    30.12S
#BATTLE MTN DOT N/A         57  38  49  S2      N/A
#GRANITE        N/A         40  28  62  CALM    29.91S
#HEPPNER 15SE   N/A         56  40  55  E1      29.89S
#LADD CYN SMT   N/A         48  39  71  E3      N/A
#LADD CREEK ODOTN/A         54  40  59  S5      N/A
#LONG CREEK HS  N/A         56  39  53  CALM    N/A
#N POWDER DOT   N/A         44  42  93  CALM    N/A
#PIKES PEAK     N/A         73  37  27  CALM    27.99S
#SUMMERVILLE 5NWN/A         54  39  57  CALM    30.08S
#TOLLGATE       N/A         57  37  47  CALM    30.02F
#TROY SCHOOL    N/A         55  45  69  CALM    29.86R
#UKIAH          N/A         42  37  82  CALM    29.96R
#WESTON 4E      N/A         70  40  34  CALM    29.89S
$$

ORZ505-221210-
JOHN DAY BASIN

CITY            SKY/WX      TMP DP  RH  WIND    PRES   REMARKS
JOHN DAY        CLEAR       60  34  37  CALM    30.13R
#ANTELOPE 9ESE  N/A         59  41  51  SW2     N/A
#DAYVILLE SCHOOLN/A         58  36  44  CALM    30.04S
#MITCHELL       N/A         57  43  59  CALM    30.24S
#MITCHELL 8NW   N/A         67  39  36  CALM    29.96F
#MONUMENT HS    N/A         54  40  59  CALM    30.01S
#MT. VERNON 5SE N/A         63  35  35  CALM    30.09R
#SPRAY SCHOOL   N/A         53  N/A N/A CALM    N/A
$$

ORZ506-221210-
OCHOCO AND JOHN DAY HIGHLANDS

CITY            SKY/WX      TMP DP  RH  WIND    PRES   REMARKS
#HORSE RIDGE DO N/A         41  25  53  CALM    N/A
#PAULINA ODOT   N/A         52  33  48  CALM    N/A
#PINE MTN OBS   N/A         67  34  29  SE6     N/A
#PRAIRIE CITY   N/A         46  39  76  CALM    30.26R
#SENECA         N/A         43  N/A N/A CALM    N/A
#SENECA 9NW     N/A         42  33  70  CALM    30.00R
$$

ORZ049-221210-
GRANDE RONDE VALLEY

CITY            SKY/WX      TMP DP  RH  WIND    PRES   REMARKS
#COVE           N/A         54  44  69  NW1     30.12R
#COVE SCHOOL    N/A         53  41  64  CALM    30.10R
#COVE 6NW       N/A         49  40  71  CALM    30.01R
#ELGIN 3N       N/A         51  37  59  CALM    30.07R
#ELGIN 1E       N/A         52  38  59  CALM    N/A
#IMBLER SCHOOL  N/A         54  39  57  CALM    30.05R
#ISLAND CITY 4N N/A         61  54  78  CALM    29.97R
#LA GRANDE-LEFFEN/A         58  39  49  CALM    27.12R
#UNION 1S       N/A         58  42  55  S1      29.99S
$$

ORZ050-221210-
WALLOWA COUNTY

CITY            SKY/WX      TMP DP  RH  WIND    PRES   REMARKS
JOSEPH AIRPORT  CLEAR       50  36  58  CALM    30.16S
#ENTERPRISE HS  N/A         45  40  82  CALM    29.90R
#IMNAHA 10S     N/A         58  36  44  SW5     30.09S
#JOSEPH         N/A         53  42  66  CALM    30.01F
#JOSEPH 3N      N/A         45  36  70  CALM    30.15S
#JOSEPH 3W      N/A         57  41  55  SW3     30.00S
#LOSTINE        N/A         46  39  76  CALM    29.80S
#LOSTINE 3SE    N/A         51  38  61  SW2     30.17S
#MT HOWARD 8000 N/A         60  27  28  W7      30.39F
#PROMISE 1S     N/A         54  39  57  CALM    30.03S
#WALLOWA LAKE   N/A         54  41  61  CALM    30.18F
#WALLOWA SCHOOL N/A         45  41  86  CALM    30.07S



$$



USA.gov is the U.S. government's official web portal to all federal, state and local government web resources and services.